This demonstration page uses our WeatherBlox Daily Observations layout. Learn more.

Left ArrowRight Arrow

Hourly Observations for September 6, 2020

Temp ( °F °C ) Dew Point ( °F °C ) Humidity (%) Winds ( mph kmh ) Pressure ( in mb ) Visibility ( mi km ) Precip ( " mm )
12:53 am 00:53 Clear 78 25.6 61 16.1 56 56 SSE 9 15 30.12 1020 10 16 0.00 0.00
1:53 am 01:53 Clear 76 24.4 62 16.7 62 62 SE 8 13 30.11 1020 10 16 0.00 0.00
2:53 am 02:53 Clear 74 23.3 63 17.2 69 69 SE 10 17 30.10 1019 10 16 0.00 0.00
3:53 am 03:53 Clear 72 22.2 63 17.2 73 73 SE 8 13 30.10 1019 10 16 0.00 0.00
4:53 am 04:53 Clear 71 21.7 62 16.7 73 73 SE 8 13 30.09 1019 10 16 0.00 0.00
5:53 am 05:53 Clear 69 20.6 62 16.7 78 78 SE 13 20 30.09 1019 10 16 0.00 0.00
6:53 am 06:53 Clear 68 20 62 16.7 81 81 ESE 8 13 30.09 1019 10 16 0.00 0.00
7:53 am 07:53 Sunny 67 19.4 62 16.7 84 84 SE 9 15 30.09 1019 10 16 0.00 0.00
8:53 am 08:53 Sunny 71 21.7 63 17.2 76 76 SE 10 17 30.10 1019 10 16 0.00 0.00
9:53 am 09:53 Sunny 76 24.4 62 16.7 62 62 SSE 9 15 30.09 1019 10 16 0.00 0.00
10:53 am 10:53 Sunny 80 26.7 61 16.1 52 52 SSE 10 17 30.09 1019 10 16 0.00 0.00
11:53 am 11:53 Sunny 84 28.9 59 15 43 43 S 9 15 30.07 1018 10 16 0.00 0.00
12:53 pm 12:53 Sunny 88 31.1 58 14.4 36 36 S 7 11 30.04 1017 10 16 0.00 0.00
1:53 pm 13:53 Sunny 90 32.2 56 13.3 32 32 SE 14 22 30.01 1016 10 16 0.00 0.00
2:53 pm 14:53 Sunny 92 33.3 54 12.2 28 28 SW 8 13 29.98 1015 10 16 0.00 0.00
3:53 pm 15:53 Sunny 92 33.3 54 12.2 28 28 undefined N/A 29.94 1014 10 16 0.00 0.00
4:53 pm 16:53 Sunny 94 34.4 52 11.1 24 24 ESE 9 15 29.91 1013 10 16 0.00 0.00
5:53 pm 17:53 Sunny 93 33.9 53 11.7 26 26 S 7 11 29.89 1012 10 16 0.00 0.00
6:53 pm 18:53 Sunny 93 33.9 52 11.1 25 25 S 10 17 29.88 1012 10 16 0.00 0.00
7:53 pm 19:53 Sunny 91 32.8 52 11.1 26 26 SSE 8 13 29.87 1012 10 16 0.00 0.00
8:53 pm 20:53 Clear 87 30.6 54 12.2 32 32 SE 13 20 29.88 1012 10 16 0.00 0.00
9:53 pm 21:53 Clear 85 29.4 54 12.2 35 35 SE 15 24 29.89 1012 10 16 0.00 0.00
10:53 pm 22:53 Clear 83 28.3 56 13.3 40 40 SE 16 26 29.90 1012 10 16 0.00 0.00
11:53 pm 23:53 Clear 81 27.2 57 13.9 44 44 SSE 13 20 29.88 1012 10 16 0.00 0.00

Powered by AerisWeather